VLG4KF LEBL-LEGR

Flight info

Callsign VLG4KF
Flight time 1h 11m
Altitude 31000
Route LOTOS M985 BAZAS DCT VIBAS
Aircraft A320/M-SDE3FGHIRWY/LB1

Departure

Time 2026-05-04 19:20
Airport Josep Tarradellas Barcelona-El Prat Airport (LEBL)

Arrival

Time 2026-05-04 20:31
Airport F.G.L. Airport Granada-Jaén Airport (LEGR)
Time Latitude Longitude Altitude Speed Heading
2026-05-04 18:43 41.29115 2.07846 19 ft 0 kts 156°
2026-05-04 19:09 41.29118 2.07843 19 ft 2 kts 155°
2026-05-04 19:10 41.29133 2.07833 20 ft 2 kts 155°
2026-05-04 19:10 41.29148 2.07823 21 ft 2 kts 149°
2026-05-04 19:10 41.29162 2.07812 22 ft 2 kts 142°
2026-05-04 19:10 41.29174 2.07797 19 ft 2 kts 123°
2026-05-04 19:11 41.29181 2.07777 20 ft 2 kts 74°
2026-05-04 19:11 41.29177 2.07763 21 ft 1 kts 64°
2026-05-04 19:11 41.29177 2.07762 21 ft 0 kts 63°
2026-05-04 19:13 41.29178 2.07764 21 ft 2 kts 64°
2026-05-04 19:13 41.29197 2.07820 20 ft 12 kts 66°
2026-05-04 19:14 41.29256 2.07994 20 ft 23 kts 66°
2026-05-04 19:14 41.29324 2.08192 20 ft 24 kts 66°
2026-05-04 19:14 41.29370 2.08329 20 ft 13 kts 75°
2026-05-04 19:14 41.29301 2.08417 22 ft 21 kts 155°
2026-05-04 19:15 41.29157 2.08502 21 ft 24 kts 156°
2026-05-04 19:15 41.28999 2.08599 18 ft 25 kts 156°
2026-05-04 19:15 41.28874 2.08685 16 ft 16 kts 131°
2026-05-04 19:15 41.28904 2.08853 16 ft 22 kts 66°
2026-05-04 19:16 41.28967 2.09035 18 ft 21 kts 66°
2026-05-04 19:16 41.29034 2.09234 17 ft 25 kts 65°
2026-05-04 19:16 41.29108 2.09449 18 ft 26 kts 65°
2026-05-04 19:16 41.29185 2.09674 17 ft 27 kts 65°
2026-05-04 19:17 41.29255 2.09877 18 ft 6 kts 66°
2026-05-04 19:17 41.29269 2.09919 17 ft 4 kts 66°
2026-05-04 19:17 41.29282 2.09962 19 ft 6 kts 74°
2026-05-04 19:17 41.29255 2.10082 15 ft 22 kts 111°
2026-05-04 19:18 41.29245 2.10219 15 ft 13 kts 68°
2026-05-04 19:18 41.29220 2.10293 15 ft 7 kts 180°
2026-05-04 19:18 41.29197 2.10263 17 ft 0 kts 247°
2026-05-04 19:19 41.29158 2.10137 19 ft 47 kts 246°
2026-05-04 19:19 41.28919 2.09455 18 ft 113 kts 245°
2026-05-04 19:19 41.28520 2.08284 88 ft 157 kts 245°
2026-05-04 19:20 41.28046 2.07006 746 ft 156 kts 231°
2026-05-04 19:20 41.27168 2.06184 1398 ft 163 kts 197°
2026-05-04 19:20 41.25976 2.06108 1857 ft 180 kts 184°
2026-05-04 19:20 41.24664 2.06043 2244 ft 197 kts 185°
2026-05-04 19:21 41.23222 2.05956 2712 ft 214 kts 186°
2026-05-04 19:21 41.21718 2.05875 3398 ft 217 kts 186°
2026-05-04 19:21 41.20202 2.05801 4192 ft 218 kts 186°
2026-05-04 19:21 41.18676 2.05728 4985 ft 221 kts 187°
2026-05-04 19:22 41.17177 2.05356 5716 ft 222 kts 205°
2026-05-04 19:22 41.15751 2.04439 6292 ft 233 kts 211°
2026-05-04 19:22 41.14320 2.03457 7040 ft 236 kts 211°
2026-05-04 19:22 41.12855 2.02454 7856 ft 238 kts 211°
2026-05-04 19:23 41.11360 2.01432 8724 ft 239 kts 210°
2026-05-04 19:23 41.10378 2.00762 9282 ft 240 kts 210°
2026-05-04 19:23 41.08438 1.99328 10340 ft 241 kts 220°
2026-05-04 19:23 41.07614 1.98304 10846 ft 241 kts 231°
2026-05-04 19:24 41.06714 1.96369 11303 ft 258 kts 248°
2026-05-04 19:24 41.06022 1.93148 11613 ft 290 kts 253°
2026-05-04 19:24 41.05471 1.90426 11821 ft 314 kts 253°
2026-05-04 19:24 41.04765 1.87619 12214 ft 326 kts 248°
2026-05-04 19:25 41.03961 1.84827 12872 ft 331 kts 248°
2026-05-04 19:25 41.03115 1.81978 13599 ft 334 kts 247°
2026-05-04 19:25 41.02251 1.79097 14243 ft 338 kts 247°
2026-05-04 19:25 41.01380 1.76194 14882 ft 341 kts 247°
2026-05-04 19:26 41.00787 1.74220 15336 ft 343 kts 247°
2026-05-04 19:26 40.99904 1.71278 15973 ft 345 kts 247°
2026-05-04 19:26 40.99015 1.68313 16605 ft 348 kts 247°
2026-05-04 19:26 40.97826 1.64349 17439 ft 352 kts 247°
2026-05-04 19:27 40.96923 1.61331 18059 ft 354 kts 247°
2026-05-04 19:27 40.96320 1.59315 18426 ft 356 kts 247°
2026-05-04 19:27 40.95118 1.55216 19069 ft 359 kts 249°
2026-05-04 19:27 40.94251 1.52100 19602 ft 360 kts 243°
2026-05-04 19:28 40.92840 1.49385 20102 ft 362 kts 226°
2026-05-04 19:28 40.91054 1.47028 20633 ft 364 kts 225°
2026-05-04 19:28 40.89243 1.44676 21163 ft 365 kts 225°
2026-05-04 19:28 40.88017 1.43088 21509 ft 367 kts 225°
2026-05-04 19:29 40.86191 1.40723 22017 ft 369 kts 225°
2026-05-04 19:29 40.84356 1.38345 22525 ft 370 kts 225°
2026-05-04 19:29 40.82514 1.35951 23020 ft 372 kts 225°
2026-05-04 19:29 40.80668 1.33546 23513 ft 374 kts 225°
2026-05-04 19:30 40.78812 1.31127 23916 ft 376 kts 226°
2026-05-04 19:30 40.76948 1.28702 24316 ft 378 kts 225°
2026-05-04 19:30 40.75073 1.26266 24711 ft 379 kts 225°
2026-05-04 19:30 40.73184 1.23819 25096 ft 381 kts 225°
2026-05-04 19:31 40.71316 1.21401 25468 ft 382 kts 225°
2026-05-04 19:31 40.69416 1.18941 25859 ft 384 kts 226°
2026-05-04 19:31 40.67503 1.16465 26218 ft 386 kts 226°
2026-05-04 19:31 40.65588 1.13988 26588 ft 388 kts 225°
2026-05-04 19:32 40.63652 1.11491 26952 ft 390 kts 226°
2026-05-04 19:32 40.61716 1.08990 27307 ft 391 kts 226°
2026-05-04 19:32 40.59768 1.06474 27663 ft 393 kts 226°
2026-05-04 19:32 40.57810 1.03949 28019 ft 395 kts 226°
2026-05-04 19:33 40.55842 1.01415 28349 ft 397 kts 226°
2026-05-04 19:33 40.53881 0.98851 28672 ft 398 kts 227°
2026-05-04 19:33 40.51974 0.96206 28985 ft 400 kts 228°
2026-05-04 19:33 40.50098 0.93501 29293 ft 401 kts 229°
2026-05-04 19:34 40.48230 0.90765 29603 ft 403 kts 229°
2026-05-04 19:34 40.46350 0.88017 29908 ft 405 kts 229°
2026-05-04 19:34 40.44453 0.85273 30168 ft 406 kts 229°
2026-05-04 19:34 40.42548 0.82543 30513 ft 405 kts 229°
2026-05-04 19:35 40.40640 0.79827 30849 ft 405 kts 229°
2026-05-04 19:35 40.36852 0.74466 30942 ft 396 kts 229°
2026-05-04 19:36 40.33127 0.69190 30943 ft 393 kts 229°
2026-05-04 19:36 40.29409 0.63928 30947 ft 393 kts 229°
2026-05-04 19:36 40.27559 0.61313 30768 ft 390 kts 229°
2026-05-04 19:37 40.25728 0.58730 30354 ft 383 kts 229°
2026-05-04 19:37 40.23935 0.56202 29940 ft 376 kts 229°
2026-05-04 19:37 40.22165 0.53710 29454 ft 372 kts 229°
2026-05-04 19:37 40.20402 0.51228 28983 ft 372 kts 229°
2026-05-04 19:38 40.18643 0.48754 28518 ft 372 kts 229°
2026-05-04 19:38 40.16875 0.46262 28066 ft 373 kts 229°
2026-05-04 19:38 40.15105 0.43771 27613 ft 375 kts 229°
2026-05-04 19:38 40.13323 0.41274 27159 ft 376 kts 229°
2026-05-04 19:39 40.11561 0.38805 26946 ft 377 kts 229°
2026-05-04 19:39 40.09773 0.36296 26952 ft 378 kts 229°
2026-05-04 19:39 40.07981 0.33784 26960 ft 378 kts 229°
2026-05-04 19:39 40.06183 0.31267 26962 ft 379 kts 229°
2026-05-04 19:40 40.04386 0.28758 26959 ft 379 kts 229°
2026-05-04 19:40 40.02590 0.26249 26957 ft 379 kts 229°
2026-05-04 19:40 40.00790 0.23739 26958 ft 379 kts 229°
2026-05-04 19:40 39.98988 0.21228 26959 ft 379 kts 229°
2026-05-04 19:41 39.97189 0.18722 26959 ft 379 kts 229°
2026-05-04 19:41 39.95388 0.16215 26956 ft 379 kts 229°
2026-05-04 19:41 39.93587 0.13708 26954 ft 379 kts 229°
2026-05-04 19:41 39.91786 0.11202 26952 ft 379 kts 229°
2026-05-04 19:42 39.89985 0.08697 26941 ft 379 kts 229°
2026-05-04 19:42 39.88184 0.06193 26943 ft 379 kts 229°
2026-05-04 19:42 39.86381 0.03694 26935 ft 379 kts 229°
2026-05-04 19:42 39.84578 0.01196 26932 ft 379 kts 229°
2026-05-04 19:43 39.82774 -0.01307 26934 ft 379 kts 229°
2026-05-04 19:43 39.80971 -0.03807 26928 ft 379 kts 229°
2026-05-04 19:43 39.79167 -0.06305 26927 ft 379 kts 229°
2026-05-04 19:43 39.77363 -0.08798 26928 ft 379 kts 229°
2026-05-04 19:44 39.75580 -0.11259 26924 ft 379 kts 229°
2026-05-04 19:44 39.73772 -0.13753 26927 ft 379 kts 229°
2026-05-04 19:44 39.71961 -0.16244 26921 ft 379 kts 229°
2026-05-04 19:44 39.70127 -0.18769 26924 ft 379 kts 229°
2026-05-04 19:45 39.68342 -0.21229 26926 ft 379 kts 229°
2026-05-04 19:45 39.66508 -0.23755 26924 ft 379 kts 229°
2026-05-04 19:45 39.64719 -0.26212 26925 ft 380 kts 229°
2026-05-04 19:45 39.62904 -0.28699 26927 ft 380 kts 229°
2026-05-04 19:46 39.61087 -0.31187 26927 ft 380 kts 229°
2026-05-04 19:46 39.59246 -0.33708 26926 ft 380 kts 229°
2026-05-04 19:46 39.57451 -0.36165 26928 ft 382 kts 229°
2026-05-04 19:46 39.55606 -0.38689 27040 ft 391 kts 229°
2026-05-04 19:47 39.53718 -0.41270 27170 ft 398 kts 229°
2026-05-04 19:47 39.51794 -0.43897 27331 ft 404 kts 229°
2026-05-04 19:47 39.49858 -0.46543 27644 ft 406 kts 229°
2026-05-04 19:47 39.47997 -0.49280 28035 ft 404 kts 234°
2026-05-04 19:48 39.46310 -0.52182 28464 ft 403 kts 235°
2026-05-04 19:48 39.44623 -0.55074 28911 ft 402 kts 235°
2026-05-04 19:48 39.42938 -0.57951 29333 ft 401 kts 235°
2026-05-04 19:48 39.41258 -0.60814 29792 ft 400 kts 235°
2026-05-04 19:49 39.39579 -0.63670 30210 ft 398 kts 235°
2026-05-04 19:49 39.37906 -0.66516 30597 ft 397 kts 235°
2026-05-04 19:49 39.36235 -0.69353 30889 ft 397 kts 235°
2026-05-04 19:50 39.32899 -0.75011 30940 ft 395 kts 235°
2026-05-04 19:50 39.29574 -0.80649 30942 ft 394 kts 235°
2026-05-04 19:51 39.26245 -0.86278 30946 ft 395 kts 234°
2026-05-04 19:51 39.22907 -0.91911 30949 ft 395 kts 234°
2026-05-04 19:52 39.19577 -0.97530 30954 ft 394 kts 234°
2026-05-04 19:52 39.16246 -1.03146 30953 ft 394 kts 235°
2026-05-04 19:53 39.12916 -1.08749 30956 ft 394 kts 234°
2026-05-04 19:53 39.09580 -1.14349 30954 ft 394 kts 235°
2026-05-04 19:54 39.06245 -1.19937 30962 ft 393 kts 234°
2026-05-04 19:54 39.02909 -1.25513 30964 ft 393 kts 235°
2026-05-04 19:55 38.99574 -1.31088 30963 ft 393 kts 235°
2026-05-04 19:55 38.96233 -1.36651 30967 ft 393 kts 235°
2026-05-04 19:56 38.92889 -1.42206 30970 ft 393 kts 235°
2026-05-04 19:56 38.89546 -1.47757 30976 ft 393 kts 235°
2026-05-04 19:57 38.86208 -1.53305 30979 ft 393 kts 235°
2026-05-04 19:57 38.82868 -1.58835 30983 ft 392 kts 235°
2026-05-04 19:58 38.79519 -1.64360 30984 ft 392 kts 235°
2026-05-04 19:58 38.76176 -1.69877 30985 ft 392 kts 235°
2026-05-04 19:59 38.72828 -1.75381 30983 ft 391 kts 235°
2026-05-04 19:59 38.69485 -1.80881 30979 ft 391 kts 235°
2026-05-04 20:00 38.66142 -1.86372 30973 ft 391 kts 235°
2026-05-04 20:00 38.62792 -1.91848 30978 ft 391 kts 235°
2026-05-04 20:01 38.59449 -1.97319 30988 ft 390 kts 235°
2026-05-04 20:01 38.56104 -2.02787 30986 ft 390 kts 235°
2026-05-04 20:02 38.52752 -2.08242 30988 ft 390 kts 235°
2026-05-04 20:02 38.49403 -2.13691 30989 ft 390 kts 235°
2026-05-04 20:03 38.46047 -2.19144 30987 ft 391 kts 235°
2026-05-04 20:03 38.42683 -2.24597 30990 ft 391 kts 235°
2026-05-04 20:04 38.39323 -2.30044 30987 ft 391 kts 235°
2026-05-04 20:04 38.35925 -2.35475 30990 ft 393 kts 232°
2026-05-04 20:05 38.32157 -2.40563 31001 ft 395 kts 230°
2026-05-04 20:05 38.28394 -2.45608 30993 ft 395 kts 230°
2026-05-04 20:06 38.24609 -2.50684 30998 ft 396 kts 230°
2026-05-04 20:06 38.20818 -2.55763 30994 ft 396 kts 230°
2026-05-04 20:07 38.17016 -2.60843 30996 ft 397 kts 231°
2026-05-04 20:07 38.13215 -2.65920 30999 ft 396 kts 230°
2026-05-04 20:08 38.09413 -2.70987 31005 ft 396 kts 230°
2026-05-04 20:08 38.05607 -2.76048 31008 ft 396 kts 231°
2026-05-04 20:09 38.01798 -2.81105 31002 ft 396 kts 231°
2026-05-04 20:09 37.97988 -2.86158 31003 ft 396 kts 230°
2026-05-04 20:10 37.94173 -2.91215 31018 ft 401 kts 231°
2026-05-04 20:10 37.90268 -2.96381 31022 ft 408 kts 231°
2026-05-04 20:11 37.86323 -3.01577 31028 ft 409 kts 230°
2026-05-04 20:11 37.82377 -3.06774 31020 ft 409 kts 231°
2026-05-04 20:12 37.78434 -3.11969 30910 ft 409 kts 231°
2026-05-04 20:12 37.76454 -3.14568 30076 ft 411 kts 230°
2026-05-04 20:12 37.74472 -3.17169 29046 ft 413 kts 230°
2026-05-04 20:12 37.72474 -3.19795 27944 ft 416 kts 230°
2026-05-04 20:13 37.70464 -3.22437 26905 ft 418 kts 230°
2026-05-04 20:13 37.68439 -3.25090 25895 ft 420 kts 230°
2026-05-04 20:13 37.66409 -3.27740 24926 ft 421 kts 229°
2026-05-04 20:13 37.64374 -3.30396 23982 ft 421 kts 229°
2026-05-04 20:14 37.63025 -3.32156 23313 ft 421 kts 229°
2026-05-04 20:14 37.60986 -3.34812 22255 ft 422 kts 229°
2026-05-04 20:14 37.58944 -3.37472 21242 ft 422 kts 229°
2026-05-04 20:14 37.56919 -3.40111 20615 ft 415 kts 229°
2026-05-04 20:15 37.54933 -3.42693 20015 ft 408 kts 229°
2026-05-04 20:15 37.52975 -3.45235 19434 ft 401 kts 229°
2026-05-04 20:15 37.51047 -3.47740 18893 ft 394 kts 229°
2026-05-04 20:15 37.49165 -3.50184 18617 ft 381 kts 229°
2026-05-04 20:16 37.47343 -3.52548 18121 ft 374 kts 229°
2026-05-04 20:16 37.45526 -3.54908 17195 ft 378 kts 229°
2026-05-04 20:16 37.43684 -3.57301 16289 ft 381 kts 229°
2026-05-04 20:16 37.41833 -3.59705 15416 ft 384 kts 229°
2026-05-04 20:17 37.39971 -3.62123 14568 ft 386 kts 229°
2026-05-04 20:17 37.38274 -3.64720 13723 ft 384 kts 236°
2026-05-04 20:17 37.36702 -3.67433 12811 ft 385 kts 236°
2026-05-04 20:17 37.35124 -3.70159 11917 ft 386 kts 236°
2026-05-04 20:18 37.33547 -3.72887 11048 ft 385 kts 236°
2026-05-04 20:18 37.31975 -3.75607 10211 ft 384 kts 235°
2026-05-04 20:18 37.30411 -3.78312 9485 ft 379 kts 235°
2026-05-04 20:18 37.28958 -3.80819 9474 ft 340 kts 235°
2026-05-04 20:19 37.27640 -3.83087 9516 ft 304 kts 236°
2026-05-04 20:19 37.26454 -3.85119 9559 ft 277 kts 236°
2026-05-04 20:19 37.25328 -3.87051 9617 ft 273 kts 236°
2026-05-04 20:19 37.24221 -3.88951 9603 ft 264 kts 236°
2026-05-04 20:20 37.23134 -3.90820 9150 ft 266 kts 236°
2026-05-04 20:20 37.22045 -3.92689 8779 ft 260 kts 236°
2026-05-04 20:20 37.21015 -3.94451 8655 ft 243 kts 236°
2026-05-04 20:20 37.20060 -3.96157 8517 ft 236 kts 243°
2026-05-04 20:21 37.19532 -3.98079 8386 ft 233 kts 263°
2026-05-04 20:21 37.19576 -4.00099 8205 ft 233 kts 282°
2026-05-04 20:21 37.21186 -4.03590 7857 ft 235 kts 307°
2026-05-04 20:22 37.22191 -4.05158 7676 ft 228 kts 307°
2026-05-04 20:22 37.23175 -4.06703 7497 ft 223 kts 307°
2026-05-04 20:22 37.24138 -4.08218 7327 ft 221 kts 307°
2026-05-04 20:22 37.25100 -4.09730 7133 ft 222 kts 307°
2026-05-04 20:23 37.26059 -4.11236 6915 ft 220 kts 307°
2026-05-04 20:23 37.26961 -4.12774 6696 ft 218 kts 295°
2026-05-04 20:23 37.27105 -4.14608 6484 ft 218 kts 254°
2026-05-04 20:23 37.26293 -4.16224 6284 ft 223 kts 229°
2026-05-04 20:24 37.25096 -4.17483 6201 ft 227 kts 215°
2026-05-04 20:24 37.23654 -4.18311 6211 ft 232 kts 197°
2026-05-04 20:24 37.22035 -4.18431 6213 ft 237 kts 173°
2026-05-04 20:24 37.20480 -4.17739 6214 ft 240 kts 149°
2026-05-04 20:25 37.19274 -4.16334 6210 ft 236 kts 124°
2026-05-04 20:25 37.18627 -4.14481 6213 ft 232 kts 99°
2026-05-04 20:25 37.18548 -4.12441 6222 ft 244 kts 88°
2026-05-04 20:25 37.18574 -4.10354 6216 ft 234 kts 87°
2026-05-04 20:26 37.18597 -4.08315 6211 ft 229 kts 87°
2026-05-04 20:26 37.18617 -4.06338 6017 ft 226 kts 87°
2026-05-04 20:26 37.18637 -4.04369 5736 ft 226 kts 88°
2026-05-04 20:26 37.18657 -4.02418 5442 ft 221 kts 88°
2026-05-04 20:27 37.18675 -4.00506 5180 ft 218 kts 88°
2026-05-04 20:27 37.18693 -3.98623 4881 ft 214 kts 88°
2026-05-04 20:27 37.18711 -3.96776 4585 ft 209 kts 88°
2026-05-04 20:27 37.18727 -3.94982 4310 ft 203 kts 88°
2026-05-04 20:28 37.18743 -3.93223 4045 ft 200 kts 88°
2026-05-04 20:28 37.18758 -3.91532 3809 ft 186 kts 88°
2026-05-04 20:28 37.18771 -3.89991 3555 ft 169 kts 88°
2026-05-04 20:28 37.18784 -3.88552 3333 ft 162 kts 88°
2026-05-04 20:29 37.18796 -3.87153 3112 ft 158 kts 89°
2026-05-04 20:29 37.18807 -3.85796 2919 ft 154 kts 89°
2026-05-04 20:29 37.18820 -3.84437 2696 ft 157 kts 89°
2026-05-04 20:29 37.18832 -3.83075 2486 ft 156 kts 90°
2026-05-04 20:30 37.18846 -3.81726 2292 ft 154 kts 89°
2026-05-04 20:30 37.18857 -3.80394 2052 ft 151 kts 88°
2026-05-04 20:30 37.18864 -3.79109 1884 ft 144 kts 88°
2026-05-04 20:30 37.18874 -3.78033 1867 ft 90 kts 89°
2026-05-04 20:31 37.18875 -3.77564 1866 ft 38 kts 90°
2026-05-04 20:31 37.18878 -3.77260 1865 ft 20 kts 90°
2026-05-04 20:31 37.18841 -3.77109 1864 ft 16 kts 110°
2026-05-04 20:31 37.18789 -3.76987 1866 ft 16 kts 118°
2026-05-04 20:32 37.18720 -3.76962 1864 ft 12 kts 232°
2026-05-04 20:32 37.18714 -3.77106 1865 ft 21 kts 267°
2026-05-04 20:32 37.18710 -3.77294 1868 ft 20 kts 268°
2026-05-04 20:32 37.18710 -3.77455 1868 ft 17 kts 270°
2026-05-04 20:33 37.18708 -3.77585 1866 ft 11 kts 261°
2026-05-04 20:33 37.18645 -3.77618 1868 ft 11 kts 180°
2026-05-04 20:33 37.18581 -3.77618 1870 ft 6 kts 186°
2026-05-04 20:33 37.18568 -3.77657 1871 ft 6 kts 264°
2026-05-04 20:34 37.18567 -3.77690 1871 ft 0 kts 269°